map of NDJ home
Great Circle Mapper logo
NDJ - Airport
Location
City:  N'Djamena, Chad
ICAO / IATA:FTTJ / NDJ

Details
Type:Airport (Aerodrome, Airfield)
Use:Public/Civil, Military, International (customs port of entry)
Latitude:1208'01"N (12.133689)
Longitude:1502'02"E (15.034019)
Datum:WGS 1984
Elevation:968 ft (295 m)
Variation:0.91E (WMM2015 magnetic declination)
0.10 annual change
Runways:1
Longest:9186 × 148 ft (2800 × 45 m), paved

Time
Time Zone:UTC+1
Local Time:

Weather
METAR:FTTJ 010900Z 04011KT 010V070 3500 DU NSC 35/09 Q1011 NOSIG
TAF:FTTJ 010514Z 0106/0212 33008KT 4000 HZ NSC PROB30
TEMPO 0114/0118 FEW050CB
TEMPO 0118/0120 2500

Related Locations
Nearby:
Farthest:MHX: 12151 mi / 19556 km
Manihiki Island (Manuhiki, Tapuahua, Humphrey Island), CK

Find:

   beyond  
but within

Other Information
Maps:
NOTAMs:
Links:
Sources:

  
flag of Chad   

Sectional Chart

Flight Planning
at skyvector.com

Satellite Image

Google Maps Satellite View

 

Copyright © 2004-2015 Karl L. Swartz. All rights reserved.
The Great Circle Mapper name and logo are trademarks of the Great Circle Mapper.
All other trademarks mentioned herein belong to their respective owners.
Please see credits for attibutions and further copyright information.

  Follow gcmap on Facebook Follow gcmap on Twitter Follow gcmap on Google+

hCard Microformat

Geo Microformat